Location: ???????
(55.3754°N, 39.3545°E)
Time: 22:55:57
(UTC+00:00)

USA 229 - Pass Details

Date: 14 April 2026
Orbit: 843 x 1365 km, 63.4° (Epoch: 10 January)

Event Time Altitude Azimuth Distance (km) Brightness Sun altitude
Rises 23:42:02 0° 311° (NW) 3,963 6.7 -18.7°
Reaches altitude 10° 23:44:46 10° 304° (NW) 3,075 6.1 -18.5°
Maximum altitude 23:51:37 41° 238° (WSW) 1,737 4.3 -17.9°
Drops below altitude 10° 23:59:07 10° 172° (S) 3,358 5.9 -17.2°
Sets 00:02:14 0° 166° (SSE) 4,361 6.6 -16.9°
